Regional Weather Roundup
Issued by NWS Columbia, SC

Home | Current Version | Previous Version | Text Only | Print | Product List | Glossary On
Versions: 1 2 3 4 5 6 7 8 9 10 11 12 13 14 15 16 17 18 19 20 21 22 23 24 25 26 27 28 29 30 31 32 33 34 35 36 37 38 39 40 41 42 43 44 45 46 47 48 49 50
000
ASUS42 KCAE 312010
RWRCAE
REGIONAL WEATHER ROUNDUP
NATIONAL WEATHER SERVICE COLUMBIA SC
400 PM EDT MON AUG 31 2015

NOTE: "FAIR" INDICATES FEW OR NO CLOUDS BELOW 12,000 FEET WITH NO
SIGNIFICANT WEATHER AND/OR OBSTRUCTIONS TO VISIBILITY.

NOT ALL STATIONS ARE QUALITY CONTROLLED BY THE NATIONAL
WEATHER SERVICE. USE DATA WITH CAUTION...ESPECIALLY
DEWPOINT OBSERVATIONS.

SCZ001>056-GAZ040-063>065-077-312100-
...UPSTATE SOUTH CAROLINA...

CITY           SKY/WX    TMP DP  RH WIND       PRES   REMARKS
ANDERSON       MOSUNNY   85  67  54 W6        30.08F
LIBERTY        CLEAR     85  62  45 CALM      30.08F
SPARTANBURG    SUNNY     88  61  40 CALM      30.07F
CLEMSON        SUNNY     85  65  51 SE6       30.10F
GREENVILLE     MOSUNNY   84  60  44 CALM      30.09F
GREENWOOD      SUNNY     83  65  54 N3        30.09F
GREER          MOSUNNY   84  61  45 CALM      30.07F
ROCK HILL      MOSUNNY   87  64  46 NE5       30.07F
CHESTER        CLEAR     90  59  35 W3        30.07F
LAURENS        PTCLDY    86  72  62 W5        30.07F


...CENTRAL SOUTH CAROLINA...

CITY           SKY/WX    TMP DP  RH WIND       PRES   REMARKS
COLUMBIA APT   MOSUNNY   87  68  52 N3        30.04F
COLUMBIA OWENS MOSUNNY   86  66  51 VRB3      30.05F
DARLINGTON     MOSUNNY   82  70  65 NE10      30.06F
FLORENCE       CLOUDY    84  72  67 NW9       30.03F
MCENTIRE ANGB  PTSUNNY   85  70  60 NE2       30.05F
ORANGEBURG     CLOUDY    83  69  62 W3        30.05F
SUMTER SHAW    PTSUNNY   84  69  58 VRB6      30.03F
NEWBERRY       CLEAR     82  68  61 W3        30.09F
BARNWELL       MOCLDY    84  72  65 NW6       30.07F
MANNING        MOCLDY    81  68  65 CALM      30.04F
CAMDEN         FAIR      86  68  54 NE8       30.05F
LANCASTER      MOCLDY    84  66  54 E5        30.06F
WINNSBORO      PTCLDY    84  64  51 CALM      30.06F


...EASTERN AND COASTAL SOUTH CAROLINA...

CITY           SKY/WX    TMP DP  RH WIND       PRES   REMARKS
MYRTLE BEACH   LGT RAIN  77  72  83 CALM      30.04F FOG
N MYRTLE BCH   CLOUDY    81  74  79 S5        30.02F
CONWAY         CLOUDY    79  77  94 N5        30.03F
MARION         FAIR      84  70  61 CALM      30.03F
HARTSVILLE     MOCLDY    81  68  65 N3        30.05F
FLORENCE       CLOUDY    84  72  67 NW9       30.03F
DARLINGTON     MOSUNNY   82  70  65 NE10      30.06F
CHARLESTON APT PTSUNNY   86  73  65 NW7       30.03F
MOUNT PLEASANT LGT RAIN  86  73  66 NW8       30.02F
WALTERBORO     PTCLDY    86  72  62 NW7       30.05F
BEAUFORT       PTSUNNY   86  74  67 NW8       30.05F


...EASTERN GEORGIA...

CITY           SKY/WX    TMP DP  RH WIND       PRES   REMARKS
AUGUSTA BUSH F PTSUNNY   84  69  60 N3        30.07F
AUGUSTA DANIEL PTSUNNY   90  69  50 N3        30.09F
THOMSON        SUNNY     82  73  73 CALM      30.13F
WASHINGTON     FAIR      84  73  70 CALM      30.09F
SYLVANIA       CLOUDY    82  75  79 N5        30.08F
STATESBORO     CLOUDY    80  78  92 NW7       30.07F
SAVANNAH       PTSUNNY   83  72  69 CALM      30.05F


...SOUTHERN NORTH CAROLINA...

CITY           SKY/WX    TMP DP  RH WIND       PRES   REMARKS
CHARLOTTE      PTSUNNY   87  63  44 CALM      30.07F
MONROE         PTSUNNY   84  67  56 NE7       30.06F
WADESBORO      PTCLDY    82  67  59 N5        30.06F
ROCKINGHAM     CLOUDY    76  68  77 NE3       30.07F
RUTHERFORDTON  SUNNY     88  60  39 NE5       30.09S
ASHEVILLE      MOSUNNY   83  59  44 SE6       30.14F

$$



USA.gov is the U.S. government's official web portal to all federal, state and local government web resources and services.